Location: Orange Harbor Mobile Home Park
(26.6923°N, 81.7937°W)
Time: 23:14:11
(UTC+00:00)

ATLAS 2AS CENTAUR R/B - Pass Details

Date: 19 September 2020
Orbit: 939 x 1273 km, 63.7° (Epoch: 19 October)

Event Time Altitude Azimuth Distance (km) Brightness Sun altitude
Rises 00:27:56 0° 172° (S) 4,093 5.6 -14.3°
Reaches altitude 10° 00:31:11 10° 160° (SSE) 3,173 4.9 -15.0°
Maximum altitude 00:37:15 26° 107° (ESE) 2,262 3.8 -16.3°
Enters shadow 00:40:36 19° 73° (ENE) 2,605 4.2 -17.1°
Exits shadow 00:46:12 - 46° (NE) 4,046 5.4 -18.3°
Sets 00:46:48 0° 44° (NE) 4,233 5.5 -18.4°
